SHT3L EGCC-EGCC

Flight info

Callsign SHT3L
Flight time 0h 13m
Altitude 19000
Route
Aircraft A319/M-SDE3FGHIRWY/LB1

Departure

Time 2026-05-05 21:44
Airport Manchester Airport (EGCC)

Arrival

Time 2026-05-05 21:57
Airport Manchester Airport (EGCC)
Time Latitude Longitude Altitude Speed Heading
2026-05-05 21:43 53.46640 -2.24075 2194 ft 151 kts 308°
2026-05-05 21:44 53.47023 -2.25721 2186 ft 153 kts 306°
2026-05-05 21:44 53.47287 -2.27472 2166 ft 157 kts 298°
2026-05-05 21:44 53.47421 -2.29363 1950 ft 169 kts 291°
2026-05-05 21:44 53.47394 -2.31305 1991 ft 164 kts 282°
2026-05-05 21:45 53.47208 -2.33232 1892 ft 170 kts 273°
2026-05-05 21:45 53.46857 -2.35090 1944 ft 163 kts 263°
2026-05-05 21:45 53.46361 -2.36823 1828 ft 168 kts 254°
2026-05-05 21:45 53.45714 -2.38455 1831 ft 165 kts 244°
2026-05-05 21:46 53.44997 -2.39974 1777 ft 167 kts 244°
2026-05-05 21:46 53.44287 -2.41558 1793 ft 171 kts 248°
2026-05-05 21:46 53.43635 -2.43164 1952 ft 165 kts 253°
2026-05-05 21:46 53.43043 -2.44869 1933 ft 171 kts 256°
2026-05-05 21:47 53.42425 -2.46531 2069 ft 165 kts 250°
2026-05-05 21:47 53.41734 -2.48108 2055 ft 169 kts 244°
2026-05-05 21:47 53.41025 -2.49637 2145 ft 165 kts 250°
2026-05-05 21:47 53.40413 -2.51303 2033 ft 172 kts 257°
2026-05-05 21:48 53.39863 -2.53055 2121 ft 167 kts 259°
2026-05-05 21:48 53.39349 -2.54831 2039 ft 173 kts 261°
2026-05-05 21:48 53.38855 -2.56614 2123 ft 168 kts 261°
2026-05-05 21:48 53.38310 -2.58353 2095 ft 168 kts 249°
2026-05-05 21:49 53.37580 -2.59830 2146 ft 161 kts 233°
2026-05-05 21:49 53.36685 -2.60957 2070 ft 163 kts 219°
2026-05-05 21:49 53.35656 -2.61684 2115 ft 155 kts 204°
2026-05-05 21:49 53.34611 -2.61948 2101 ft 153 kts 191°
2026-05-05 21:50 53.33549 -2.61875 2097 ft 150 kts 180°
2026-05-05 21:50 53.32551 -2.61518 2148 ft 144 kts 173°
2026-05-05 21:50 53.31598 -2.61007 2113 ft 144 kts 167°
2026-05-05 21:50 53.30692 -2.60344 2140 ft 140 kts 163°
2026-05-05 21:51 53.29820 -2.59595 2091 ft 143 kts 160°
2026-05-05 21:51 53.28997 -2.58684 2126 ft 140 kts 150°
2026-05-05 21:51 53.28291 -2.57570 2163 ft 138 kts 141°
2026-05-05 21:51 53.27686 -2.56330 2216 ft 137 kts 143°
2026-05-05 21:52 53.26232 -2.54142 2223 ft 147 kts 148°
2026-05-05 21:52 53.25565 -2.52798 2195 ft 154 kts 124°
2026-05-05 21:52 53.25259 -2.51099 2330 ft 155 kts 104°
2026-05-05 21:53 53.25332 -2.49291 2462 ft 161 kts 89°
2026-05-05 21:53 53.25728 -2.47470 2400 ft 178 kts 70°
2026-05-05 21:53 53.26543 -2.45811 2422 ft 190 kts 58°
2026-05-05 21:53 53.27136 -2.44787 2487 ft 178 kts 54°
2026-05-05 21:54 53.27919 -2.43263 2371 ft 169 kts 59°
2026-05-05 21:54 53.28603 -2.41710 2135 ft 164 kts 63°
2026-05-05 21:54 53.29274 -2.40191 1903 ft 161 kts 62°
2026-05-05 21:54 53.29968 -2.38739 1679 ft 159 kts 60°
2026-05-05 21:55 53.30659 -2.37337 1481 ft 150 kts 57°
2026-05-05 21:55 53.31290 -2.36047 1321 ft 138 kts 59°
2026-05-05 21:55 53.31883 -2.34818 1150 ft 135 kts 60°
2026-05-05 21:55 53.32465 -2.33598 1005 ft 132 kts 62°
2026-05-05 21:56 53.33022 -2.32374 835 ft 133 kts 59°
2026-05-05 21:56 53.33617 -2.31164 661 ft 133 kts 59°
2026-05-05 21:56 53.34203 -2.29935 432 ft 138 kts 62°
2026-05-05 21:56 53.34810 -2.28674 264 ft 139 kts 61°
2026-05-05 21:57 53.35376 -2.27503 244 ft 119 kts 57°
2026-05-05 21:57 53.35706 -2.26410 268 ft 74 kts 59°
2026-05-05 21:57 53.35842 -2.26170 261 ft 0 kts